| time (UTC) | temp F | wind direction | speed MPH | gust MPH | rain 1hr in | rain 24hr in | rain mn in | humidity % | barometer mb |
| 20260906140428 | 0 | 5 | 5.0 | 9.0 | 0.00 | 0.00 | 0.00 | 1019.3 | |
| 20260906135935 | 0 | 5 | 5.0 | 9.0 | 0.00 | 0.00 | 0.00 | 1019.3 | |
| 20260906135440 | 0 | 360 | 4.0 | 7.0 | 0.00 | 0.00 | 0.00 | 1019.4 | |
| 20260906134928 | 0 | 5 | 6.0 | 10.0 | 0.00 | 0.00 | 0.00 | 1019.5 | |
| 20260906134431 | 0 | 5 | 6.0 | 10.0 | 0.00 | 0.00 | 0.00 | 1019.4 | |
| 20260906133935 | 0 | 5 | 6.0 | 9.0 | 0.00 | 0.00 | 0.00 | 1019.4 | |
| 20260906133442 | 0 | 5 | 5.0 | 9.0 | 0.00 | 0.00 | 0.00 | 1019.4 | |
| 20260906132925 | 0 | 5 | 6.0 | 9.0 | 0.00 | 0.00 | 0.00 | 1019.5 | |
| 20260906132427 | 0 | 5 | 6.0 | 9.0 | 0.00 | 0.00 | 0.00 | 1019.5 | |
| 20260906131446 | 0 | 5 | 4.0 | 9.0 | 0.00 | 0.00 | 0.00 | 1019.5 | |
| 20260906130928 | 0 | 5 | 5.0 | 9.0 | 0.00 | 0.00 | 0.00 | 1019.4 | |
| 20260906130437 | 0 | 5 | 3.0 | 8.0 | 0.00 | 0.00 | 0.00 | 1019.3 | |
| 20260906125938 | 0 | 360 | 4.0 | 8.0 | 0.00 | 0.00 | 0.00 | 1019.4 | |
| 20260906125441 | 0 | 5 | 4.0 | 8.0 | 0.00 | 0.00 | 0.00 | 1019.5 | |
| 20260906125004 | 0 | 5 | 4.0 | 8.0 | 0.00 | 0.00 | 0.00 | 1019.4 | |
| 20260906124426 | 0 | 5 | 4.0 | 6.0 | 0.00 | 0.00 | 0.00 | 1019.2 | |
| 20260906123929 | 0 | 5 | 4.0 | 6.0 | 0.00 | 0.00 | 0.00 | 1019.2 | |
| 20260906123434 | 0 | 5 | 5.0 | 7.0 | 0.00 | 0.00 | 0.00 | 1019.1 | |
| 20260906122940 | 0 | 5 | 5.0 | 7.0 | 0.00 | 0.00 | 0.00 | 1019.0 | |
| 20260906122448 | 0 | 5 | 4.0 | 7.0 | 0.00 | 0.00 | 0.00 | 1018.9 | |
| 20260906121935 | 0 | 5 | 4.0 | 9.0 | 0.00 | 0.00 | 0.00 | 1018.9 | |
| 20260906121439 | 0 | 5 | 6.0 | 8.0 | 0.00 | 0.00 | 0.00 | 1018.7 | |
| 20260906121004 | 0 | 5 | 4.0 | 8.0 | 0.00 | 0.00 | 0.00 | 1018.6 | |
| 20260906120426 | 0 | 5 | 5.0 | 8.0 | 0.00 | 0.00 | 0.00 | 1018.6 | |
| 20260906115930 | 0 | 5 | 4.0 | 6.0 | 0.00 | 0.00 | 0.00 | 1018.7 | |
| 20260906115434 | 0 | 5 | 3.0 | 6.0 | 0.00 | 0.00 | 0.00 | 1018.6 | |
| 20260906114943 | 0 | 5 | 4.0 | 6.0 | 0.00 | 0.00 | 0.00 | 1018.5 | |
| 20260906114427 | 0 | 5 | 3.0 | 6.0 | 0.00 | 0.00 | 0.00 | 1018.5 | |
| 20260906113931 | 0 | 5 | 4.0 | 6.0 | 0.00 | 0.00 | 0.00 | 1018.4 | |
| 20260906113435 | 0 | 5 | 3.0 | 6.0 | 0.00 | 0.00 | 0.00 | 1018.3 | |
| 20260906112943 | 0 | 5 | 4.0 | 6.0 | 0.00 | 0.00 | 0.00 | 1018.4 | |
| 20260906112426 | 0 | 5 | 4.0 | 6.0 | 0.00 | 0.00 | 0.00 | 1018.2 | |
| 20260906111931 | 0 | 5 | 3.0 | 5.0 | 0.00 | 0.00 | 0.00 | 1018.2 | |
| 20260906111434 | 0 | 5 | 3.0 | 7.0 | 0.00 | 0.00 | 0.00 | 1018.1 | |
| 20260906110939 | 0 | 5 | 3.0 | 7.0 | 0.00 | 0.00 | 0.00 | 1018.0 | |
| 20260906110444 | 0 | 5 | 4.0 | 6.0 | 0.00 | 0.00 | 0.00 | 1018.0 | |
| 20260906105929 | 0 | 5 | 4.0 | 5.0 | 0.00 | 0.00 | 0.00 | 1017.9 | |
| 20260906105437 | 0 | 5 | 4.0 | 6.0 | 0.00 | 0.00 | 0.00 | 1017.8 | |
| 20260906104922 | 0 | 5 | 4.0 | 6.0 | 0.00 | 0.00 | 0.00 | 1017.5 | |
| 20260906104449 | 0 | 360 | 4.0 | 6.0 | 0.00 | 0.00 | 0.00 | 1017.5 | |
| 20260906103932 | 0 | 5 | 4.0 | 6.0 | 0.00 | 0.00 | 0.00 | 1017.5 | |
| 20260906103435 | 0 | 5 | 3.0 | 5.0 | 0.00 | 0.00 | 0.00 | 1017.6 | |
| 20260906103000 | 0 | 5 | 4.0 | 5.0 | 0.00 | 0.00 | 0.00 | 1017.6 | |
| 20260906102446 | 0 | 5 | 3.0 | 5.0 | 0.00 | 0.00 | 0.00 | 1017.6 | |
| 20260906101928 | 0 | 5 | 3.0 | 5.0 | 0.00 | 0.00 | 0.00 | 1017.6 | |
| 20260906101434 | 0 | 5 | 3.0 | 5.0 | 0.00 | 0.00 | 0.00 | 1017.6 | |
| 20260906100938 | 0 | 5 | 4.0 | 5.0 | 0.00 | 0.00 | 0.00 | 1017.7 | |
| 20260906100442 | 0 | 5 | 2.0 | 5.0 | 0.00 | 0.00 | 0.00 | 1017.7 | |
| 20260906095924 | 0 | 5 | 3.0 | 6.0 | 0.00 | 0.00 | 0.00 | 1017.5 | |
| 20260906095429 | 0 | 5 | 4.0 | 6.0 | 0.00 | 0.00 | 0.00 | 1017.5 | |
| 20260906094933 | 0 | 5 | 3.0 | 5.0 | 0.00 | 0.00 | 0.00 | 1017.4 | |
| 20260906094456 | 0 | 5 | 3.0 | 5.0 | 0.00 | 0.00 | 0.00 | 1017.5 | |
| 20260906093940 | 0 | 5 | 4.0 | 5.0 | 0.00 | 0.00 | 0.00 | 1017.5 | |
| 20260906093444 | 0 | 5 | 3.0 | 5.0 | 0.00 | 0.00 | 0.00 | 1017.5 | |
| 20260906092927 | 0 | 5 | 3.0 | 5.0 | 0.00 | 0.00 | 0.00 | 1017.4 | |
| 20260906092451 | 0 | 5 | 3.0 | 5.0 | 0.00 | 0.00 | 0.00 | 1017.4 | |
| 20260906091934 | 0 | 5 | 3.0 | 5.0 | 0.00 | 0.00 | 0.00 | 1017.2 | |
| 20260906091439 | 0 | 5 | 4.0 | 6.0 | 0.00 | 0.00 | 0.00 | 1017.2 | |
| 20260906090944 | 0 | 5 | 4.0 | 6.0 | 0.00 | 0.00 | 0.00 | 1017.3 | |
| 20260906090448 | 0 | 5 | 3.0 | 6.0 | 0.00 | 0.00 | 0.00 | 1017.3 | |
| 20260906085933 | 0 | 5 | 3.0 | 6.0 | 0.00 | 0.00 | 0.00 | 1017.3 | |
| 20260906085439 | 0 | 5 | 3.0 | 5.0 | 0.00 | 0.00 | 0.00 | 1017.5 | |
| 20260906084924 | 0 | 5 | 3.0 | 5.0 | 0.00 | 0.00 | 0.00 | 1017.5 | |
| 20260906084430 | 0 | 5 | 3.0 | 5.0 | 0.00 | 0.00 | 0.00 | 1017.5 | |
| 20260906083934 | 0 | 5 | 3.0 | 4.0 | 0.00 | 0.00 | 0.00 | 1017.4 | |
| 20260906083439 | 0 | 5 | 3.0 | 4.0 | 0.00 | 0.00 | 0.00 | 1017.4 | |
| 20260906082925 | 0 | 5 | 3.0 | 5.0 | 0.00 | 0.00 | 0.00 | 1017.4 | |
| 20260906082431 | 0 | 5 | 4.0 | 5.0 | 0.00 | 0.00 | 0.00 | 1017.4 | |
| 20260906081935 | 0 | 5 | 3.0 | 5.0 | 0.00 | 0.00 | 0.00 | 1017.5 | |
| 20260906081439 | 0 | 5 | 4.0 | 5.0 | 0.00 | 0.00 | 0.00 | 1017.5 | |
| 20260906080921 | 0 | 5 | 4.0 | 5.0 | 0.00 | 0.00 | 0.00 | 1017.5 | |
| 20260906080430 | 0 | 5 | 3.0 | 5.0 | 0.00 | 0.00 | 0.00 | 1017.4 | |
| 20260906075938 | 0 | 5 | 3.0 | 5.0 | 0.00 | 0.00 | 0.00 | 1017.3 | |
| 20260906075505 | 0 | 5 | 4.0 | 5.0 | 0.00 | 0.00 | 0.00 | 1017.3 | |
| 20260906074949 | 0 | 5 | 4.0 | 6.0 | 0.00 | 0.00 | 0.00 | 1017.4 | |
| 20260906074434 | 0 | 5 | 4.0 | 6.0 | 0.00 | 0.00 | 0.00 | 1017.4 | |
| 20260906073435 | 0 | 5 | 3.0 | 6.0 | 0.00 | 0.00 | 0.00 | 1017.4 | |
| 20260906073001 | 0 | 5 | 3.0 | 5.0 | 0.00 | 0.00 | 0.00 | 1017.4 | |
| 20260906072443 | 0 | 5 | 4.0 | 5.0 | 0.00 | 0.00 | 0.00 | 1017.5 | |
| 20260906071926 | 0 | 5 | 3.0 | 5.0 | 0.00 | 0.00 | 0.00 | 1017.6 | |
| 20260906071431 | 0 | 5 | 3.0 | 5.0 | 0.00 | 0.00 | 0.00 | 1017.7 | |
| 20260906070934 | 0 | 5 | 2.0 | 4.0 | 0.00 | 0.00 | 0.00 | 1017.7 | |
| 20260906070440 | 0 | 5 | 3.0 | 5.0 | 0.00 | 0.00 | 0.00 | 1017.9 | |
| 20260906065926 | 0 | 5 | 3.0 | 6.0 | 0.00 | 0.00 | 0.00 | 1017.9 | |
| 20260906065429 | 0 | 5 | 4.0 | 6.0 | 0.00 | 0.00 | 0.00 | 1017.9 | |
| 20260906064431 | 0 | 5 | 3.0 | 5.0 | 0.00 | 0.00 | 0.00 | 1018.1 | |
| 20260906064000 | 0 | 5 | 3.0 | 5.0 | 0.00 | 0.00 | 0.00 | 1018.1 | |
| 20260906063443 | 0 | 5 | 2.0 | 5.0 | 0.00 | 0.00 | 0.00 | 1018.1 | |
| 20260906062927 | 0 | 5 | 3.0 | 5.0 | 0.00 | 0.00 | 0.00 | 1018.0 | |
| 20260906062451 | 0 | 5 | 3.0 | 5.0 | 0.00 | 0.00 | 0.00 | 1018.0 | |
| 20260906061934 | 0 | 5 | 3.0 | 5.0 | 0.00 | 0.00 | 0.00 | 1017.9 | |
| 20260906061501 | 0 | 5 | 3.0 | 5.0 | 0.00 | 0.00 | 0.00 | 1017.9 | |
| 20260906060923 | 0 | 5 | 2.0 | 6.0 | 0.00 | 0.00 | 0.00 | 1017.8 | |
| 20260906060431 | 0 | 5 | 4.0 | 7.0 | 0.00 | 0.00 | 0.00 | 1017.8 | |
| 20260906055934 | 0 | 5 | 4.0 | 7.0 | 0.00 | 0.00 | 0.00 | 1017.8 | |
| 20260906055420 | 0 | 5 | 3.0 | 7.0 | 0.00 | 0.00 | 0.00 | 1017.9 | |
| 20260906054924 | 0 | 5 | 3.0 | 6.0 | 0.00 | 0.00 | 0.00 | 1017.8 | |
| 20260906054428 | 0 | 5 | 4.0 | 6.0 | 0.00 | 0.00 | 0.00 | 1017.8 | |
| 20260906053951 | 0 | 5 | 3.0 | 6.0 | 0.00 | 0.00 | 0.00 | 1017.7 | |
| 20260906053417 | 0 | 5 | 4.0 | 5.0 | 0.00 | 0.00 | 0.00 | 1017.6 | |
| 20260906052924 | 0 | 5 | 4.0 | 5.0 | 0.00 | 0.00 | 0.00 | 1017.6 | |
| 20260906052429 | 0 | 5 | 3.0 | 5.0 | 0.00 | 0.00 | 0.00 | 1017.5 | |
| 20260906051934 | 0 | 5 | 3.0 | 5.0 | 0.00 | 0.00 | 0.00 | 1017.4 | |
| 20260906051422 | 0 | 5 | 3.0 | 6.0 | 0.00 | 0.00 | 0.00 | 1017.5 | |
| 20260906050929 | 0 | 5 | 3.0 | 7.0 | 0.00 | 0.00 | 0.00 | 1017.5 | |
| 20260906050437 | 0 | 5 | 4.0 | 7.0 | 0.00 | 0.00 | 0.00 | 1017.4 | |
| 20260906045941 | 0 | 5 | 3.0 | 6.0 | 0.00 | 0.00 | 0.00 | 1017.3 | |
| 20260906045423 | 0 | 5 | 4.0 | 6.0 | 0.00 | 0.00 | 0.00 | 1017.3 | |
| 20260906044421 | 0 | 5 | 3.0 | 7.0 | 0.00 | 0.00 | 0.00 | 1017.4 | |
| 20260906043924 | 0 | 5 | 3.0 | 7.0 | 0.00 | 0.00 | 0.00 | 1017.3 | |
| 20260906043427 | 0 | 5 | 2.0 | 6.0 | 0.00 | 0.00 | 0.00 | 1017.3 | |
| 20260906042932 | 0 | 5 | 3.0 | 7.0 | 0.00 | 0.00 | 0.00 | 1017.2 | |
| 20260906042436 | 0 | 5 | 4.0 | 8.0 | 0.00 | 0.00 | 0.00 | 1017.0 | |
| 20260906041918 | 0 | 5 | 5.0 | 8.0 | 0.00 | 0.00 | 0.00 | 1017.0 | |
| 20260906041425 | 0 | 5 | 4.0 | 8.0 | 0.00 | 0.00 | 0.00 | 1016.9 | |
| 20260906040933 | 0 | 5 | 5.0 | 8.0 | 0.00 | 0.00 | 0.00 | 1016.8 | |
| 20260906040419 | 0 | 5 | 4.0 | 9.0 | 0.00 | 0.00 | 0.00 | 1016.9 | |
| 20260906035926 | 0 | 5 | 6.0 | 9.0 | 0.00 | 0.00 | 0.00 | 1016.7 | |
| 20260906035452 | 0 | 5 | 6.0 | 8.0 | 0.00 | 0.00 | 0.00 | 1016.5 | |
| 20260906034958 | 0 | 360 | 4.0 | 9.0 | 0.00 | 0.00 | 0.00 | 1016.5 | |
| 20260906034419 | 0 | 5 | 5.0 | 11.0 | 0.00 | 0.00 | 0.00 | 1016.4 | |
| 20260906033923 | 0 | 5 | 6.0 | 11.0 | 0.00 | 0.00 | 0.00 | 1016.3 | |
| 20260906033449 | 0 | 5 | 7.0 | 13.0 | 0.00 | 0.00 | 0.00 | 1016.4 | |
| 20260906032956 | 0 | 5 | 6.0 | 13.0 | 0.00 | 0.00 | 0.00 | 1016.4 | |
| 20260906032421 | 0 | 5 | 6.0 | 11.0 | 0.00 | 0.00 | 0.00 | 1016.3 | |
| 20260906031927 | 0 | 360 | 6.0 | 12.0 | 0.00 | 0.00 | 0.00 | 1016.2 | |
| 20260906031432 | 0 | 360 | 8.0 | 13.0 | 0.00 | 0.00 | 0.00 | 1016.1 | |
| 20260906030920 | 0 | 5 | 7.0 | 13.0 | 0.00 | 0.00 | 0.00 | 1016.1 | |
| 20260906030426 | 0 | 5 | 9.0 | 12.0 | 0.00 | 0.00 | 0.00 | 1015.9 | |
| 20260906025931 | 0 | 360 | 7.0 | 11.0 | 0.00 | 0.00 | 0.00 | 1015.9 | |
| 20260906025439 | 0 | 5 | 6.0 | 11.0 | 0.00 | 0.00 | 0.00 | 1015.9 | |
| 20260906024922 | 0 | 5 | 6.0 | 11.0 | 0.00 | 0.00 | 0.00 | 1015.9 | |
| 20260906024450 | 0 | 5 | 6.0 | 12.0 | 0.00 | 0.00 | 0.00 | 1015.9 | |
| 20260906023936 | 0 | 5 | 7.0 | 13.0 | 0.00 | 0.00 | 0.00 | 1015.8 | |
| 20260906023423 | 0 | 5 | 8.0 | 15.0 | 0.00 | 0.00 | 0.00 | 1015.8 | |
| 20260906022932 | 0 | 5 | 10.0 | 15.0 | 0.00 | 0.00 | 0.00 | 1015.6 | |
| 20260906022436 | 0 | 360 | 9.0 | 16.0 | 0.00 | 0.00 | 0.00 | 1015.6 | |
| 20260906021939 | 0 | 5 | 10.0 | 16.0 | 0.00 | 0.00 | 0.00 | 1015.5 | |
| 20260906021424 | 0 | 5 | 8.0 | 14.0 | 0.00 | 0.00 | 0.00 | 1015.6 | |
| 20260906020932 | 0 | 5 | 10.0 | 14.0 | 0.00 | 0.00 | 0.00 | 1015.4 | |
| 20260906020435 | 0 | 5 | 7.0 | 14.0 | 0.00 | 0.00 | 0.00 | 1015.4 | |
| 20260906015921 | 0 | 5 | 6.0 | 12.0 | 0.00 | 0.00 | 0.00 | 1015.3 | |
| 20260906015427 | 0 | 360 | 6.0 | 12.0 | 0.00 | 0.00 | 0.00 | 1015.3 | |
| 20260906014930 | 0 | 5 | 7.0 | 12.0 | 0.00 | 0.00 | 0.00 | 1015.3 | |
| 20260906014439 | 0 | 5 | 8.0 | 12.0 | 0.00 | 0.00 | 0.00 | 1015.2 | |
| 20260906013944 | 0 | 5 | 5.0 | 8.0 | 0.00 | 0.00 | 0.00 | 1015.3 | |
| 20260906013427 | 0 | 5 | 4.0 | 6.0 | 0.00 | 0.00 | 0.00 | 1015.2 | |
| 20260906012931 | 0 | 5 | 3.0 | 5.0 | 0.00 | 0.00 | 0.00 | 1015.3 | |
| 20260906012435 | 0 | 5 | 3.0 | 6.0 | 0.00 | 0.00 | 0.00 | 1015.2 | |
| 20260906011919 | 0 | 5 | 4.0 | 6.0 | 0.00 | 0.00 | 0.00 | 1015.1 | |
| 20260906011425 | 0 | 5 | 3.0 | 5.0 | 0.00 | 0.00 | 0.00 | 1015.1 | |
| 20260906010429 | 0 | 5 | 3.0 | 5.0 | 0.00 | 0.00 | 0.00 | 1015.0 | |
| 20260906005933 | 0 | 5 | 3.0 | 4.0 | 0.00 | 0.00 | 0.00 | 1015.0 | |
| 20260906005437 | 0 | 5 | 3.0 | 4.0 | 0.00 | 0.00 | 0.00 | 1015.0 | |
| 20260906004939 | 0 | 5 | 3.0 | 5.0 | 0.00 | 0.00 | 0.00 | 1015.0 | |
| 20260906004420 | 0 | 5 | 3.0 | 6.0 | 0.00 | 0.00 | 0.00 | 1015.0 | |
| 20260906003927 | 0 | 5 | 3.0 | 7.0 | 0.00 | 0.00 | 0.00 | 1015.1 | |
| 20260906003430 | 0 | 5 | 4.0 | 7.0 | 0.00 | 0.00 | 0.00 | 1015.0 | |
| 20260906002935 | 0 | 5 | 2.0 | 5.0 | 0.00 | 0.00 | 0.00 | 1015.0 | |
| 20260906002422 | 0 | 5 | 2.0 | 6.0 | 0.00 | 0.00 | 0.00 | 1015.0 | |
| 20260906001926 | 0 | 5 | 2.0 | 6.0 | 0.00 | 0.00 | 0.00 | 1014.9 | |
| 20260906001430 | 0 | 5 | 3.0 | 5.0 | 0.00 | 0.00 | 0.00 | 1014.9 | |
| 20260906000934 | 0 | 5 | 2.0 | 5.0 | 0.00 | 0.00 | 0.00 | 1015.0 | |
| 20260906000436 | 0 | 5 | 2.0 | 4.0 | 0.00 | 0.00 | 0.00 | 1015.0 | |
| 20260905235436 | 77 | 5 | 2.0 | 4.0 | 0.00 | 0.00 | 0.00 | 82 | 1015.0 |
| 20260905234922 | 77 | 5 | 3.0 | 4.0 | 0.00 | 0.00 | 0.00 | 81 | 1015.2 |
| 20260905234426 | 77 | 5 | 2.0 | 5.0 | 0.00 | 0.00 | 0.00 | 81 | 1015.2 |
| 20260905233932 | 78 | 5 | 2.0 | 6.0 | 0.00 | 0.00 | 0.00 | 80 | 1015.2 |
| 20260905233435 | 78 | 5 | 3.0 | 6.0 | 0.00 | 0.00 | 0.00 | 80 | 1015.3 |
| 20260905232920 | 78 | 5 | 3.0 | 6.0 | 0.00 | 0.00 | 0.00 | 80 | 1015.4 |
| 20260905232447 | 78 | 5 | 3.0 | 6.0 | 0.00 | 0.00 | 0.00 | 80 | 1015.3 |
| 20260905231934 | 78 | 5 | 5.0 | 9.0 | 0.00 | 0.00 | 0.00 | 80 | 1015.2 |
| 20260905231423 | 78 | 5 | 7.0 | 9.0 | 0.00 | 0.00 | 0.00 | 80 | 1015.1 |
| 20260905230926 | 78 | 5 | 5.0 | 8.0 | 0.00 | 0.00 | 0.00 | 80 | 1015.1 |
| 20260905230449 | 78 | 5 | 5.0 | 8.0 | 0.00 | 0.00 | 0.00 | 81 | 1015.1 |
| 20260905225935 | 78 | 5 | 5.0 | 9.0 | 0.00 | 0.00 | 0.00 | 81 | 1015.2 |
| 20260905225423 | 78 | 5 | 4.0 | 11.0 | 0.00 | 0.00 | 0.00 | 82 | 1015.1 |
| 20260905224927 | 78 | 5 | 5.0 | 11.0 | 0.00 | 0.00 | 0.00 | 82 | 1015.2 |
| 20260905224434 | 79 | 5 | 6.0 | 10.0 | 0.00 | 0.00 | 0.00 | 82 | 1015.2 |
| 20260905223920 | 79 | 5 | 6.0 | 11.0 | 0.00 | 0.00 | 0.00 | 81 | 1015.2 |
| 20260905223425 | 79 | 5 | 4.0 | 11.0 | 0.00 | 0.00 | 0.00 | 80 | 1015.2 |
| 20260905222949 | 79 | 5 | 3.0 | 9.0 | 0.00 | 0.00 | 0.00 | 80 | 1015.1 |
| 20260905222433 | 79 | 5 | 4.0 | 10.0 | 0.00 | 0.00 | 0.00 | 80 | 1014.9 |
| 20260905221935 | 79 | 5 | 4.0 | 14.0 | 0.00 | 0.00 | 0.00 | 81 | 1014.8 |
| 20260905221420 | 79 | 5 | 8.0 | 13.0 | 0.00 | 0.00 | 0.00 | 80 | 1014.7 |
| 20260905220927 | 80 | 5 | 6.0 | 11.0 | 0.00 | 0.00 | 0.00 | 81 | 1014.7 |
| 20260905220434 | 80 | 5 | 5.0 | 16.0 | 0.00 | 0.00 | 0.00 | 80 | 1014.8 |
| 20260905215919 | 81 | 5 | 8.0 | 16.0 | 0.00 | 0.00 | 0.00 | 79 | 1014.8 |
| 20260905215445 | 81 | 5 | 8.0 | 12.0 | 0.00 | 0.00 | 0.00 | 79 | 1014.9 |
| 20260905214928 | 81 | 5 | 7.0 | 12.0 | 0.00 | 0.00 | 0.00 | 80 | 1014.7 |
| 20260905214432 | 82 | 5 | 6.0 | 11.0 | 0.00 | 0.00 | 0.00 | 79 | 1014.7 |
| 20260905213935 | 82 | 5 | 5.0 | 12.0 | 0.00 | 0.00 | 0.00 | 81 | 1014.7 |
| 20260905213421 | 81 | 5 | 7.0 | 12.0 | 0.00 | 0.00 | 0.00 | 79 | 1014.7 |
| 20260905212927 | 82 | 5 | 7.0 | 14.0 | 0.00 | 0.00 | 0.00 | 80 | 1014.7 |
| 20260905212432 | 82 | 5 | 9.0 | 14.0 | 0.00 | 0.00 | 0.00 | 79 | 1014.6 |
| 20260905211922 | 82 | 5 | 7.0 | 13.0 | 0.00 | 0.00 | 0.00 | 79 | 1014.5 |
| 20260905211425 | 82 | 5 | 6.0 | 12.0 | 0.00 | 0.00 | 0.00 | 80 | 1014.4 |
| 20260905210932 | 82 | 5 | 6.0 | 13.0 | 0.00 | 0.00 | 0.00 | 80 | 1014.4 |
| 20260905210436 | 82 | 5 | 7.0 | 14.0 | 0.00 | 0.00 | 0.00 | 80 | 1014.5 |
| 20260905205919 | 82 | 5 | 6.0 | 14.0 | 0.00 | 0.00 | 0.00 | 80 | 1014.5 |
| 20260905205425 | 82 | 5 | 7.0 | 12.0 | 0.00 | 0.00 | 0.00 | 80 | 1014.5 |
| 20260905204933 | 82 | 5 | 8.0 | 12.0 | 0.00 | 0.00 | 0.00 | 79 | 1014.6 |
| 20260905204438 | 83 | 5 | 7.0 | 12.0 | 0.00 | 0.00 | 0.00 | 79 | 1014.6 |
| 20260905203922 | 82 | 5 | 6.0 | 13.0 | 0.00 | 0.00 | 0.00 | 80 | 1014.6 |
| 20260905203446 | 82 | 5 | 6.0 | 13.0 | 0.00 | 0.00 | 0.00 | 79 | 1014.6 |
| 20260905202927 | 83 | 5 | 8.0 | 14.0 | 0.00 | 0.00 | 0.00 | 78 | 1014.5 |
| 20260905202430 | 83 | 5 | 10.0 | 15.0 | 0.00 | 0.00 | 0.00 | 78 | 1014.5 |
| 20260905201933 | 84 | 5 | 9.0 | 15.0 | 0.00 | 0.00 | 0.00 | 77 | 1014.5 |
| 20260905201420 | 84 | 5 | 8.0 | 11.0 | 0.00 | 0.00 | 0.00 | 79 | 1014.4 |
| 20260905200924 | 83 | 5 | 5.0 | 10.0 | 0.00 | 0.00 | 0.00 | 79 | 1014.5 |
| 20260905200430 | 84 | 5 | 5.0 | 12.0 | 0.00 | 0.00 | 0.00 | 78 | 1014.6 |
| 20260905195934 | 84 | 5 | 8.0 | 12.0 | 0.00 | 0.00 | 0.00 | 77 | 1014.5 |
| 20260905195417 | 85 | 5 | 8.0 | 11.0 | 0.00 | 0.00 | 0.00 | 77 | 1014.4 |
| 20260905194944 | 85 | 5 | 5.0 | 10.0 | 0.00 | 0.00 | 0.00 | 77 | 1014.5 |
| 20260905194429 | 86 | 5 | 4.0 | 10.0 | 0.00 | 0.00 | 0.00 | 76 | 1014.5 |
| 20260905193933 | 86 | 5 | 5.0 | 8.0 | 0.00 | 0.00 | 0.00 | 76 | 1014.5 |
| 20260905193420 | 85 | 5 | 5.0 | 9.0 | 0.00 | 0.00 | 0.00 | 77 | 1014.6 |
| 20260905192924 | 85 | 5 | 4.0 | 9.0 | 0.00 | 0.00 | 0.00 | 78 | 1014.7 |
| 20260905192430 | 84 | 5 | 6.0 | 12.0 | 0.00 | 0.00 | 0.00 | 77 | 1014.6 |
| 20260905191935 | 85 | 5 | 8.0 | 12.0 | 0.00 | 0.00 | 0.00 | 75 | 1014.6 |
| 20260905191500 | 86 | 5 | 7.0 | 9.0 | 0.00 | 0.00 | 0.00 | 76 | 1014.6 |
| 20260905190922 | 85 | 5 | 6.0 | 9.0 | 0.00 | 0.00 | 0.00 | 76 | 1014.6 |
| 20260905190426 | 85 | 5 | 3.0 | 7.0 | 0.00 | 0.00 | 0.00 | 78 | 1014.7 |
| 20260905185955 | 84 | 5 | 3.0 | 7.0 | 0.00 | 0.00 | 0.00 | 78 | 1014.7 |
| 20260905185416 | 84 | 5 | 5.0 | 9.0 | 0.00 | 0.00 | 0.00 | 80 | 1014.7 |
| 20260905184925 | 84 | 5 | 6.0 | 9.0 | 0.00 | 0.00 | 0.00 | 77 | 1014.8 |
| 20260905184427 | 85 | 5 | 5.0 | 7.0 | 0.00 | 0.00 | 0.00 | 78 | 1014.8 |
| 20260905183934 | 85 | 5 | 4.0 | 11.0 | 0.00 | 0.00 | 0.00 | 77 | 1014.8 |
| 20260905183420 | 85 | 5 | 5.0 | 11.0 | 0.00 | 0.00 | 0.00 | 78 | 1014.8 |
| 20260905182927 | 85 | 5 | 4.0 | 10.0 | 0.00 | 0.00 | 0.00 | 80 | 1014.8 |
| 20260905182431 | 84 | 5 | 7.0 | 8.0 | 0.00 | 0.00 | 0.00 | 77 | 1014.9 |
| 20260905181935 | 85 | 5 | 3.0 | 6.0 | 0.00 | 0.00 | 0.00 | 77 | 1014.8 |
| 20260905181439 | 85 | 5 | 4.0 | 9.0 | 0.00 | 0.00 | 0.00 | 77 | 1014.9 |
| 20260905180923 | 85 | 5 | 5.0 | 9.0 | 0.00 | 0.00 | 0.00 | 78 | 1014.9 |
| 20260905180426 | 85 | 360 | 4.0 | 8.0 | 0.00 | 0.00 | 0.00 | 79 | 1014.8 |
| 20260905175934 | 85 | 5 | 4.0 | 8.0 | 0.00 | 0.00 | 0.00 | 78 | 1014.8 |
| 20260905175420 | 85 | 5 | 2.0 | 6.0 | 0.00 | 0.00 | 0.00 | 79 | 1014.9 |
| 20260905174924 | 85 | 5 | 2.0 | 6.0 | 0.00 | 0.00 | 0.00 | 79 | 1015.0 |
| 20260905174448 | 85 | 5 | 3.0 | 5.0 | 0.00 | 0.00 | 0.00 | 79 | 1014.9 |
| 20260905173951 | 85 | 5 | 2.0 | 5.0 | 0.00 | 0.00 | 0.00 | 79 | 1014.9 |
| 20260905173433 | 85 | 5 | 2.0 | 6.0 | 0.00 | 0.00 | 0.00 | 80 | 1015.0 |
| 20260905172920 | 85 | 5 | 3.0 | 6.0 | 0.00 | 0.00 | 0.00 | 80 | 1015.1 |
| 20260905172428 | 85 | 5 | 3.0 | 10.0 | 0.00 | 0.00 | 0.00 | 79 | 1015.0 |
| 20260905171930 | 84 | 5 | 4.0 | 10.0 | 0.00 | 0.00 | 0.00 | 82 | 1015.0 |
| 20260905171434 | 84 | 5 | 4.0 | 8.0 | 0.00 | 0.00 | 0.00 | 82 | 1015.0 |
| 20260905170922 | 83 | 5 | 5.0 | 8.0 | 0.00 | 0.00 | 0.00 | 81 | 1015.1 |
| 20260905170425 | 83 | 5 | 3.0 | 9.0 | 0.00 | 0.00 | 0.00 | 81 | 1015.1 |
| 20260905165928 | 83 | 5 | 4.0 | 9.0 | 0.00 | 0.00 | 0.00 | 82 | 1015.0 |
| 20260905165432 | 83 | 5 | 4.0 | 7.0 | 0.00 | 0.00 | 0.00 | 82 | 1015.1 |
| 20260905164936 | 83 | 5 | 4.0 | 8.0 | 0.00 | 0.00 | 0.00 | 85 | 1015.0 |
| 20260905164439 | 83 | 5 | 5.0 | 7.0 | 0.00 | 0.00 | 0.00 | 84 | 1015.1 |
| 20260905163924 | 83 | 5 | 5.0 | 7.0 | 0.00 | 0.00 | 0.00 | 83 | 1015.1 |
| 20260905163428 | 83 | 5 | 3.0 | 7.0 | 0.00 | 0.00 | 0.00 | 83 | 1015.1 |
| 20260905162932 | 82 | 5 | 3.0 | 8.0 | 0.00 | 0.00 | 0.00 | 84 | 1015.1 |
| 20260905162435 | 82 | 5 | 4.0 | 8.0 | 0.00 | 0.00 | 0.00 | 84 | 1015.0 |
| 20260905161940 | 82 | 5 | 5.0 | 8.0 | 0.00 | 0.00 | 0.00 | 84 | 1015.1 |
| 20260905161424 | 82 | 360 | 4.0 | 8.0 | 0.00 | 0.00 | 0.00 | 84 | 1015.1 |
| 20260905160946 | 82 | 5 | 4.0 | 9.0 | 0.00 | 0.00 | 0.00 | 84 | 1015.2 |
| 20260905160429 | 82 | 5 | 3.0 | 9.0 | 0.00 | 0.00 | 0.00 | 85 | 1015.2 |
| 20260905155918 | 82 | 360 | 5.0 | 8.0 | 0.00 | 0.00 | 0.00 | 85 | 1015.2 |
| 20260905155423 | 82 | 5 | 5.0 | 9.0 | 0.00 | 0.00 | 0.00 | 85 | 1015.2 |
| 20260905154947 | 82 | 5 | 7.0 | 9.0 | 0.00 | 0.00 | 0.00 | 85 | 1015.3 |
| 20260905154429 | 81 | 5 | 5.0 | 8.0 | 0.00 | 0.00 | 0.00 | 85 | 1015.1 |
| 20260905153956 | 81 | 5 | 5.0 | 8.0 | 0.00 | 0.00 | 0.00 | 85 | 1015.0 |
| 20260905153438 | 82 | 5 | 4.0 | 8.0 | 0.00 | 0.00 | 0.00 | 86 | 1015.0 |
| 20260905152924 | 0 | 5 | 5.0 | 9.0 | 0.00 | 0.00 | 0.00 | 1015.0 | |
| 20260905152429 | 0 | 5 | 6.0 | 11.0 | 0.00 | 0.00 | 0.00 | 1015.0 | |
| 20260905151937 | 0 | 5 | 6.0 | 11.0 | 0.00 | 0.00 | 0.00 | 1015.0 | |
| 20260905151423 | 0 | 5 | 6.0 | 11.0 | 0.00 | 0.00 | 0.00 | 1014.9 | |
| 20260905150926 | 0 | 5 | 5.0 | 10.0 | 0.00 | 0.00 | 0.00 | 1014.8 | |
| 20260905150430 | 0 | 360 | 5.0 | 10.0 | 0.00 | 0.00 | 0.00 | 1014.7 | |
| 20260905145935 | 0 | 5 | 7.0 | 11.0 | 0.00 | 0.00 | 0.00 | 1014.7 | |
| 20260905145418 | 0 | 5 | 7.0 | 11.0 | 0.00 | 0.00 | 0.00 | 1014.6 | |
| 20260905144926 | 0 | 5 | 7.0 | 9.0 | 0.00 | 0.00 | 0.00 | 1014.5 | |
| 20260905144453 | 0 | 5 | 5.0 | 12.0 | 0.00 | 0.00 | 0.00 | 1014.5 | |
| 20260905144000 | 0 | 5 | 8.0 | 12.0 | 0.00 | 0.00 | 0.00 | 1014.4 | |
| 20260905143501 | 0 | 5 | 6.0 | 13.0 | 0.00 | 0.00 | 0.00 | 1014.3 | |
| 20260905142924 | 0 | 5 | 8.0 | 11.0 | 0.00 | 0.00 | 0.00 | 1014.2 | |
| 20260905142428 | 0 | 5 | 7.0 | 12.0 | 0.00 | 0.00 | 0.00 | 1014.2 | |
| 20260905141929 | 0 | 5 | 8.0 | 12.0 | 0.00 | 0.00 | 0.00 | 1014.2 | |
| 20260905141432 | 0 | 5 | 10.0 | 12.0 | 0.00 | 0.00 | 0.00 | 1014.1 | |
| 20260905140934 | 0 | 5 | 5.0 | 7.0 | 0.00 | 0.00 | 0.00 | 1014.0 |